Location: Newark
(34.9500°N, 139.9667°E)
Time: 20:24:59
(UTC+00:00)

Altair - Pass Details

Date: 16 December 2019
Orbit: 1502 x 1682 km, 47.2° (Epoch: 24 January)

Event Time Altitude Azimuth Distance (km) Brightness Sun altitude
Exits shadow 19:06:56 13° 209° (SSW) 3,436 9.1 -30.8°
Drops below altitude 10° 19:08:19 10° 200° (SSW) 3,659 9.3 -30.5°
Sets 19:12:52 0° 181° (S) 4,659 10.1 -29.6°
